Meath Environmental Platform

Observations for Trim Market St

Time AQI Temp °C Hum % Pres Pa CO μg/m³ H₂S μg/m³ NO μg/m³ NO₂ μg/m³ O₃ μg/m³ SO₂ μg/m³ PM1 μg/m³ PM2.5 μg/m³ PM10 μg/m³
Wednesday 19 August 2026
05:25 2 13.5 84 2,147,483,647 0.31 0 2.9 5.85 40.64 0 0.71 1 3.73
05:24 2 13.5 84 2,147,483,647 0.32 0 2.93 5.84 43.69 0 0.71 1.46 4.81
05:23 2 13.5 84 2,147,483,647 0.31 0 2.78 5.72 40.25 0 0.71 1.46 4.27
05:22 2 13.5 84 2,147,483,647 0.32 0 2.8 6.5 43.55 0 0.71 1.46 4.27
05:21 2 13.6 84 2,147,483,647 0.3 0 2.74 7.21 38.21 0 0.71 2.39 5.9
05:20 2 13.6 84 2,147,483,647 0.3 0 2.75 5.88 39.89 0 1.43 1.93 4.81
05:19 2 13.6 84 2,147,483,647 0.3 0 2.73 6.8 41.13 0 0.71 1.46 5.9
05:18 2 13.6 84 2,147,483,647 0.3 0 2.75 7.87 40.57 0 0.71 1.93 5.36
05:17 2 13.6 84 2,147,483,647 0.29 0 2.72 6.01 40.5 0 0.71 1.93 4.81
05:16 2 13.6 84 2,147,483,647 0.31 0 2.72 5.41 49.73 0 0 1 3.72
05:14 2 13.7 84 2,147,483,647 0.3 0 2.69 5.09 45.94 0 0.71 1 4.81
05:13 2 13.7 84 2,147,483,647 0.28 0 2.7 5.58 43.06 0 1.43 1.94 5.35
05:12 2 13.7 84 2,147,483,647 0.29 0 2.7 6.19 44.45 0 0.71 1.94 5.35
05:10 2 13.7 84 2,147,483,647 0.28 0 2.72 5 44.59 0 0.71 1.47 5.35
05:08 2 13.7 84 2,147,483,647 0.28 0 2.74 4.78 42.23 0 0.71 1.47 4.26
05:05 2 13.8 84 2,147,483,647 0.27 0 2.69 5.04 40.26 0 0 1.01 3.71
04:58 2 13.9 84 2,147,483,647 0.26 0 2.64 3.95 45.75 0 0 1.48 4.26
04:57 2 13.9 84 2,147,483,647 0.28 0 2.66 5.66 40.74 0 0.71 1.48 4.26
04:56 2 14 84 2,147,483,647 0.26 0 2.61 4.65 43.67 0 0.71 1.94 4.8
04:55 2 14 84 2,147,483,647 0.27 0 2.61 4.43 40.16 0 0.71 1.48 5.35